Weather History for KVPZ - January, 2015

Change the Weather History Date:

Wednesday, January 14, 2015

  Actual Average Record
Temperature  
Mean Temperature 4 °F 23 °F  
Max Temperature 14 °F 31 °F 47 °F (2002)
Min Temperature -7 °F 16 °F -7 °F (2015)
Degree Days  
Heating Degree Days 61 42  
Month to date heating degree days 721 579  
Since 1 July heating degree days 3230 2981  
Cooling Degree Days 0 0  
Month to date cooling degree days 0 0  
Year to date cooling degree days 0 0  
Moisture  
Dew Point -2 °F    
Average Humidity 86    
Maximum Humidity 100    
Minimum Humidity 77    
Precipitation  
Precipitation T in 0.05 in 0.47 in (2007)
Month to date precipitation 0.79 0.75  
Year to date precipitation 0.79 0.75  
Sea Level Pressure  
Sea Level Pressure 30.38 in    
Wind  
Wind Speed 4 mph (South)    
Max Wind Speed 10 mph    
Max Gust Speed 13 mph    
Visibility 6 miles    
Events Fog , Snow    
T = Trace of Precipitation, MM = Missing Value Source: NWS Daily Summary

Daily Weather History Graph

Daily Weather History Graph

Search for Another Location

Airport or City:

Trip Planner

Search our weather history database for the weather conditions in past years. The results will help you decide how hot, cold, wet, or windy it might be!

Date:

Astronomy

Jan. 14, 2015 Rise Set
Actual Time 7:12 AM CST 4:41 PM CST
Civil Twilight 6:41 AM CST 5:12 PM CST
Nautical Twilight 6:07 AM CST 5:46 PM CST
Astronomical Twilight 5:34 AM CST 6:19 PM CST
Moon 1:03 AM CST (1/14) 11:57 AM CST (1/14)
Length of Visible Light 10h 30m
Length of Day
9h 29m
Last Quarter, 37% of the Moon is Illuminated
Jan 14
Last Quarter
Jan 20
New
Jan 26
First Quarter
Feb 3
Full
Feb 11
Last Quarter

Hourly Weather History & Observations

Time (CST) Temp. Windchill Dew Point Humidity Pressure Visibility Wind Dir Wind Speed Gust Speed Precip Events Conditions
12:56 AM 3.0 °F - -0.9 °F 84% 30.48 in 5.0 mi Calm Calm - 0.00 in Snow Light Snow
1:56 AM -0.9 °F - -5.1 °F 83% 30.47 in 8.0 mi Calm Calm - 0.00 in   Mostly Cloudy
2:12 AM -0.9 °F - -5.1 °F 83% 30.41 in 10.0 mi Calm Calm - N/A   Partly Cloudy
2:56 AM -0.9 °F - -4.0 °F 87% 30.45 in 10.0 mi Calm Calm - N/A   Scattered Clouds
3:06 AM -2.0 °F - -6.0 °F 83% 30.39 in 10.0 mi Calm Calm - N/A   Mostly Cloudy
3:30 AM -2.9 °F - -6.0 °F 87% 30.38 in 7.0 mi Calm Calm - N/A   Scattered Clouds
3:56 AM -2.9 °F - -7.1 °F 82% 30.43 in 8.0 mi Calm Calm - N/A   Clear
4:08 AM -4.0 °F - -8.0 °F 83% 30.37 in 8.0 mi Calm Calm - N/A   Scattered Clouds
4:17 AM -2.9 °F - -7.1 °F 82% 30.37 in 8.0 mi Calm Calm - N/A   Mostly Cloudy
4:48 AM -5.1 °F -13.6 °F -8.0 °F 87% 30.37 in 9.0 mi East 3.5 mph - N/A   Mostly Cloudy
4:56 AM -5.1 °F - -9.0 °F 83% 30.44 in 9.0 mi Calm Calm - N/A   Mostly Cloudy
5:56 AM -4.0 °F - -7.1 °F 87% 30.45 in 10.0 mi Calm Calm - N/A   Overcast
6:31 AM -4.0 °F -12.4 °F -6.0 °F 91% 30.38 in 1.8 mi South 3.5 mph - N/A   Overcast
6:56 AM -4.0 °F - -6.0 °F 91% 30.45 in 2.0 mi Calm Calm - N/A   Overcast
7:07 AM -4.0 °F -12.4 °F -7.1 °F 87% 30.38 in 0.8 mi South 3.5 mph - N/A   Mist
7:18 AM -4.0 °F -12.4 °F -7.1 °F 87% 30.38 in 0.2 mi South 3.5 mph - N/A Fog Light Freezing Fog
7:51 AM -4.0 °F -14.6 °F -5.8 °F 92% 30.38 in 1.0 mi South 4.6 mph - N/A   Overcast
7:56 AM -4.0 °F -12.4 °F -5.1 °F 95% 30.44 in 1.5 mi South 3.5 mph - N/A   Overcast
8:04 AM -4.0 °F -12.4 °F -4.0 °F 100% 30.38 in 3.0 mi South 3.5 mph - N/A   Overcast
8:27 AM -4.0 °F -14.6 °F -5.1 °F 95% 30.38 in 2.0 mi SSW 4.6 mph - N/A   Mostly Cloudy
8:44 AM -2.9 °F -13.3 °F -6.0 °F 87% 30.38 in 3.0 mi South 4.6 mph - N/A   Overcast
8:56 AM -2.9 °F -13.3 °F -4.0 °F 95% 30.45 in 3.0 mi South 4.6 mph - N/A   Overcast
9:18 AM -0.9 °F -8.9 °F -2.9 °F 91% 30.37 in 2.5 mi South 3.5 mph - N/A   Overcast
9:38 AM -0.9 °F - -2.0 °F 95% 30.37 in 4.0 mi Calm Calm - N/A   Overcast
9:56 AM 1.0 °F -6.7 °F -0.9 °F 91% 30.44 in 2.5 mi South 3.5 mph - N/A   Overcast
10:03 AM 1.0 °F -8.7 °F -2.0 °F 87% 30.37 in 2.5 mi South 4.6 mph - N/A   Overcast
10:16 AM 1.9 °F -5.6 °F -2.0 °F 83% 30.37 in 3.0 mi South 3.5 mph - N/A   Overcast
10:39 AM 1.9 °F -5.6 °F -0.9 °F 88% 30.36 in 6.0 mi South 3.5 mph - N/A   Overcast
10:56 AM 3.0 °F -8.0 °F -0.0 °F 87% 30.41 in 7.0 mi SSW 5.8 mph - N/A   Overcast
11:56 AM 6.1 °F -5.6 °F 1.0 °F 80% 30.38 in 7.0 mi SSW 6.9 mph - N/A   Overcast
12:56 PM 9.0 °F -2.2 °F 5.0 °F 84% 30.35 in 8.0 mi South 6.9 mph - N/A   Overcast
1:56 PM 12.0 °F 0.5 °F 6.1 °F 77% 30.34 in 8.0 mi South 8.1 mph - N/A   Mostly Cloudy
2:56 PM 12.9 °F 0.7 °F 7.0 °F 77% 30.34 in 10.0 mi SSW 9.2 mph - N/A   Mostly Cloudy
3:56 PM 12.9 °F 2.6 °F 7.0 °F 77% 30.34 in 6.0 mi South 6.9 mph - N/A   Haze
4:56 PM 12.0 °F 2.7 °F 6.1 °F 77% 30.32 in 7.0 mi South 5.8 mph - N/A   Clear
5:56 PM 10.9 °F 0.2 °F 5.0 °F 77% 30.33 in 8.0 mi SSW 6.9 mph - N/A   Mostly Cloudy
6:56 PM 9.0 °F -2.2 °F 3.9 °F 80% 30.32 in 7.0 mi South 6.9 mph - N/A   Clear
7:56 PM 8.1 °F -0.5 °F 3.9 °F 83% 30.32 in 8.0 mi SSW 4.6 mph - N/A   Clear
8:56 PM 8.1 °F -4.3 °F 3.9 °F 83% 30.31 in 8.0 mi SSW 8.1 mph - N/A   Clear
9:56 PM 9.0 °F -3.2 °F 5.0 °F 84% 30.31 in 8.0 mi SSW 8.1 mph - N/A   Clear
10:56 PM 8.1 °F -0.5 °F 5.0 °F 87% 30.29 in 7.0 mi SSW 4.6 mph - N/A   Clear
11:56 PM 7.0 °F - 3.0 °F 84% 30.27 in 6.0 mi Calm Calm - N/A   Clear